Tracking 29924 objects as of 4-Dec-2024
HD Live streaming from Space Station
objects crossing your sky now

USA 181

Track USA 181 now!
10-day predictions
USA 181 is classified as:


NORAD ID: 28537
Int'l Code: 2005-004A
Perigee: 735.8 km
Apogee: 1,489.0 km
Inclination: 63.4 °
Period: 107.4 minutes
Semi major axis: 7483 km
RCS: Unknown
Launch date: February 3, 2005
Source: United States (US)
Launch site: AIR FORCE EASTERN TEST RANGE (AFETR)
Your satellite tracking list
Your tracking list is empty




NASA's NSSDC Master Catalog

Two Line Element Set (TLE):
1 28537U 05004A   24331.25235576 0.00000000  00000-0  00000-0 0    05
2 28537  63.4004  82.2819 0503286   2.6171 357.3828 13.41075559    01
Source of the keplerian elements: McCants